Change the Weather History Date:

Wednesday, April 9, 2014

  Actual Average Record
Temperature  
Mean Temperature 59 °F 65 °F  
Max Temperature 72 °F 76 °F 89 °F (1965)
Min Temperature 45 °F 54 °F 35 °F (2000)
Degree Days  
Heating Degree Days 6 3  
Month to date heating degree days 22 30  
Since 1 July heating degree days 2001 1661  
Cooling Degree Days 0 3  
Month to date cooling degree days 19 20  
Year to date cooling degree days 32 75  
Growing Degree Days 8 (Base 50)    
Moisture  
Dew Point 44 °F    
Average Humidity 63    
Maximum Humidity 100    
Minimum Humidity 25    
Precipitation  
Precipitation 0.00 in 0.16 in 3.31 in (1933)
Month to date precipitation 1.72 1.54  
Year to date precipitation 15.34 18.45  
Snow  
Snow 0.00 in 0.00 in - ()
Month to date snowfall 0.0 0.0  
Since 1 July snowfall 1.3 0.2  
Snow Depth 0.00 in    
Sea Level Pressure  
Sea Level Pressure 30.12 in    
Wind  
Wind Speed 8 mph (NW)    
Max Wind Speed 20 mph    
Max Gust Speed 25 mph    
Visibility 10 miles    
Events      
T = Trace of Precipitation, MM = Missing Value Source: NWS Daily Summary

Daily Weather History Graph

Daily Weather History Graph

Search for Another Location

Airport or City:

Trip Planner

Search our weather history database for the weather conditions in past years. The results will help you decide how hot, cold, wet, or windy it might be!

Date:

Astronomy

Apr. 09, 2014 Rise Set
Actual Time 6:32 AM CDT 7:17 PM CDT
Civil Twilight 6:07 AM CDT 7:41 PM CDT
Nautical Twilight 5:39 AM CDT 8:10 PM CDT
Astronomical Twilight 5:09 AM CDT 8:40 PM CDT
Moon 2:24 PM CDT (4/9) 3:00 AM CDT (4/9)
Length of Visible Light 13h 33m
Length of Day
12h 44m
Waxing Gibbous, 72% of the Moon is Illuminated
Apr 9
Waxing Gibbous
Apr 15
Full
Apr 22
Last Quarter
Apr 29
New
May 6
First Quarter

Hourly Weather History & Observations

Time (CDT) Temp. Windchill Dew Point Humidity Pressure Visibility Wind Dir Wind Speed Gust Speed Precip Events Conditions
12:07 AM 51.1 °F - 50.0 °F 96% 30.01 in 10.0 mi WNW 9.2 mph - N/A   Overcast
12:22 AM 50.0 °F - 50.0 °F 100% 30.01 in 10.0 mi WNW 9.2 mph - N/A   Mostly Cloudy
12:24 AM 50.0 °F - 50.0 °F 100% 30.01 in 10.0 mi WNW 8.1 mph - N/A   Overcast
12:32 AM 50.0 °F - 50.0 °F 100% 30.01 in 10.0 mi WNW 8.1 mph 18.4 mph N/A   Mostly Cloudy
12:44 AM 50.0 °F - 50.0 °F 100% 30.01 in 10.0 mi NW 11.5 mph - N/A   Mostly Cloudy
12:56 AM 50.0 °F - 48.9 °F 96% 30.01 in 10.0 mi WNW 9.2 mph - N/A   Scattered Clouds
1:56 AM 48.9 °F - 48.9 °F 100% 30.02 in 10.0 mi WNW 8.1 mph - N/A   Clear
2:56 AM 48.0 °F - 48.0 °F 100% 30.02 in 10.0 mi WNW 6.9 mph - N/A   Partly Cloudy
3:56 AM 48.0 °F - 48.0 °F 100% 30.04 in 10.0 mi WNW 8.1 mph - N/A   Clear
4:56 AM 46.9 °F - 46.9 °F 100% 30.07 in 10.0 mi WNW 8.1 mph - N/A   Clear
5:56 AM 46.9 °F - 46.0 °F 97% 30.11 in 7.0 mi West 8.1 mph - N/A   Partly Cloudy
6:25 AM 46.0 °F 41.9 °F 46.0 °F 100% 30.13 in 10.0 mi WNW 8.1 mph - N/A   Partly Cloudy
6:56 AM 46.0 °F 42.5 °F 46.0 °F 100% 30.14 in 10.0 mi NW 6.9 mph - N/A   Partly Cloudy
7:56 AM 48.9 °F - 46.0 °F 90% 30.17 in 10.0 mi NW 9.2 mph - N/A   Clear
8:56 AM 53.1 °F - 46.0 °F 77% 30.19 in 10.0 mi NNW 12.7 mph - N/A   Clear
9:56 AM 59.0 °F - 46.0 °F 62% 30.21 in 10.0 mi North 13.8 mph - N/A   Clear
10:56 AM 63.0 °F - 43.0 °F 48% 30.22 in 10.0 mi North 13.8 mph - N/A   Clear
11:56 AM 66.0 °F - 41.0 °F 40% 30.21 in 10.0 mi North 12.7 mph - N/A   Partly Cloudy
12:56 PM 68.0 °F - 37.9 °F 33% 30.19 in 10.0 mi NNW 12.7 mph 23.0 mph N/A   Partly Cloudy
1:56 PM 69.1 °F - 37.0 °F 31% 30.17 in 10.0 mi NNW 12.7 mph - N/A   Partly Cloudy
2:56 PM 70.0 °F - 37.9 °F 31% 30.16 in 10.0 mi NNW 11.5 mph 19.6 mph N/A   Partly Cloudy
3:56 PM 70.0 °F - 36.0 °F 29% 30.15 in 10.0 mi NNW 4.6 mph - N/A   Clear
4:56 PM 71.1 °F - 34.0 °F 26% 30.14 in 10.0 mi NNW 10.4 mph - N/A   Clear
5:56 PM 70.0 °F - 37.0 °F 30% 30.14 in 10.0 mi West 5.8 mph - N/A   Clear
6:56 PM 66.9 °F - 39.0 °F 36% 30.15 in 10.0 mi WNW 3.5 mph - N/A   Clear
7:56 PM 61.0 °F - 39.9 °F 46% 30.16 in 10.0 mi West 3.5 mph - N/A   Partly Cloudy
8:56 PM 54.0 °F - 46.0 °F 75% 30.18 in 10.0 mi South 3.5 mph - N/A   Partly Cloudy
9:56 PM 55.0 °F - 46.9 °F 74% 30.20 in 10.0 mi WSW 4.6 mph - N/A   Clear
10:56 PM 55.0 °F - 48.0 °F 77% 30.20 in 10.0 mi Calm Calm - N/A   Partly Cloudy
11:56 PM 51.1 °F - 48.0 °F 89% 30.22 in 10.0 mi Calm Calm - N/A   Clear